Home   Weather   El Monte   Past weeks

Flag for USA Past Weather in El Monte, California, USA — Yesterday and Last 2 Weeks

Now
79 °F

Sunny.


Feels Like: 80 °F
Forecast: 63 / 77 °F
Wind: 7 mph from Southwest

Location: Fullerton Municipal Airport

Current Time: Aug 16, 2017 at 3:13:37 pm

Latest Report: Aug 16, 2017 at 1:53 pm


Visibility: 10 mi

Pressure: 29.94 "Hg

Humidity: 52%

Dew Point: 60 °F

Location of El MonteLocation

Past Weather in El Monte — Graph

°F

El Monte Temperature Yesterday

Maximum temperature yesterday: 77 °F (at 1:53 pm)
Minimum temperature yesterday: 67 °F (at 9:53 am)
Average temperature yesterday: 70 °F

High & Low Weather Summary for the Past Weeks

 TemperatureHumidityPressure
High94 °F (Aug 1, 2:53 pm)90% (Aug 5, 2:53 am)29.98 "Hg (Aug 5, 2:53 am)
Low65 °F (Aug 9, 5:53 am)37% (Aug 1, 2:53 pm)29.78 "Hg (Aug 11, 6:53 pm)
Average75 °F70%29.89 "Hg
* Reported Aug 1 1:53 pm — Aug 16 1:53 pm, El Monte. Weather by CustomWeather, © 2017

Note: Actual official high and low records may vary slightly from our data, if they occured in-between our weather recording intervals... More about our weather records

Advertising

El Monte Weather History for the Previous 24 Hours

Scroll right to see more
 ConditionsComfort  
Time TempWeatherWind HumidityBarometerVisibility
1:53 pm
Wed, Aug 16
79 °FSunny.7 mph52%29.94 "Hg10 mi
12:53 pm78 °FPassing clouds.7 mph54%29.95 "Hg10 mi
11:53 am77 °FSunny.5 mph47%29.97 "Hg10 mi
10:53 am75 °FPassing clouds.No wind52%29.97 "Hg10 mi
9:53 am72 °FOvercast.3 mph59%29.97 "Hg10 mi
8:53 am71 °FOvercast.3 mph61%29.98 "Hg10 mi
7:53 am69 °FOvercast.6 mph66%29.97 "Hg6 mi
6:53 am67 °FPartly sunny.7 mph71%29.96 "Hg9 mi
6:18 am68 °FOvercast.6 mph68%29.95 "Hg10 mi
5:53 am67 °FOvercast.5 mph71%29.94 "Hg10 mi
4:53 am67 °FOvercast.3 mph73%29.93 "Hg10 mi
3:53 am67 °FOvercast.6 mph73%29.92 "Hg10 mi
2:53 am67 °FOvercast.5 mph73%29.92 "Hg10 mi
1:53 am68 °FOvercast.3 mph73%29.92 "Hg10 mi
12:53 am68 °FOvercast.5 mph73%29.92 "Hg10 mi
11:53 pm
Tue, Aug 15
68 °FOvercast.5 mph73%29.92 "Hg10 mi
10:53 pm67 °FPassing clouds.5 mph76%29.92 "Hg10 mi
9:53 pm67 °FClear.5 mph79%29.91 "Hg10 mi
8:53 pm67 °FClear.6 mph79%29.89 "Hg10 mi
7:53 pm68 °FClear.6 mph76%29.88 "Hg10 mi
6:53 pm70 °FSunny.7 mph68%29.87 "Hg10 mi
5:53 pm73 °FSunny.8 mph64%29.86 "Hg10 mi
4:53 pm76 °FSunny.6 mph58%29.87 "Hg10 mi
3:53 pm76 °FSunny.8 mph58%29.87 "Hg10 mi
3:00 pm77 °FPassing clouds.9 mph56%29.88 "Hg10 mi
Weather by CustomWeather, © 2017

See weather overviewHow to use our weather pages